Location: Montbazon
(47.2835°N, 0.6999°E)
Time: 17:42:51
(UTC+00:00)

CENTAUR R/B - Pass Details

Date: 08 November 2025
Orbit: 633 x 1547 km, 63.4° (Epoch: 09 December)

Event Time Altitude Azimuth Distance (km) Brightness Sun altitude
Exits shadow 05:39:05 - 321° (NW) 3,501 4.9 -12.5°
Reaches altitude 10° 05:40:09 10° 324° (NW) 3,179 4.7 -12.3°
Maximum altitude 05:47:44 47° 37° (NE) 1,792 4.1 -11.0°
Drops below altitude 10° 05:56:32 10° 108° (ESE) 3,680 7.2 -9.6°
Sets 05:59:52 0° 115° (ESE) 4,697 8.1 -9.0°
